Weather in Bisha

Saudi Arabia     20°00′39″N   42°37′08″E
В апреле 2022 года жителям России запретили посещать сайт meteo.paraplan.net по решению Генеральной прокуратуры. Аудитория сайта уменьшилась в 10 раз. Владельцы сайта не видят смысла в поддержке погодного сервера в таких условиях. Сайт будет закрыт в октябре.
temp.,
°C
wind,
m/s
gust,
m/s
humid.,
%
clouds,
%
prec.,
mm/h
press.,
hPa
HPBL,
m
6 october, thu
thu600:00+24se33221 0.0 101328
03:00+22wnw22250 0.0 101311
06:00+21s11280 0.0 101411
09:00+28e11190 0.0 1015571
12:00+32e241347 0.0 10123581
15:00+33nne331071 0.0 10083871
18:00+30ne451395 0.0 100948
21:00+26e581838 0.0 1012104
7 october, fri
fri700:00+24ssw33205 0.0 101214
03:00+22se11235 0.0 101111
06:00+20se11264 0.0 101311
09:00+28se12160 0.0 1013595
12:00+32e231199 0.0 10103649
15:00+33ne44976 0.0 10073821
18:00+29ene691215 0.0 1009106
21:00+26e581510 0.0 101182
8 october, sat
sat800:00+24se331722 0.0 101121
03:00+23wsw33195 0.0 101112
06:00+21se22226 0.0 101211
09:00+28s13154 0.0 1012618
12:00+33e34105 0.0 10103639
15:00+34e5495 0.0 10073830
18:00+30e57108 0.0 100868
21:00+26e611125 0.0 1011131
9 october, sun
sun900:00+24se34145 0.0 101038
03:00+21sw111793 0.0 101111
06:00+19sse111858 0.0 101311
09:00+28sse231110 0.0 1013598
12:00+32e4580 0.0 10113377
15:00+33ene6580 0.0 10093637
18:00+29ene610120 0.0 1010134
21:00+25e57140 0.0 101367
10 october, mon
mon1000:00+23ese34160 0.0 101340
03:00+20e11200 0.0 101411
06:00+19sw11220 0.0 101511
09:00+28sse46150 0.0 1016879
12:00+32ese46100 0.0 10133528
15:00+33ene5690 0.0 10103734
18:00+28ne69120 0.0 1011108
21:00+24e611150 0.0 1014139